Location: Freemans Gardens
(41.6414°N, 83.6077°W)
Time: 21:58:03
(UTC+00:00)

Okean O Rocket - Pass Details

Date: 29 October 2020
Orbit: 623 x 645 km, 98.2° (Epoch: 25 November)

Event Time Altitude Azimuth Distance (km) Brightness Sun altitude
Rises 23:50:14 0° 195° (SSW) 2,906 5.3 -15.1°
Reaches altitude 10° 23:52:44 10° 209° (SSW) 2,000 4.6 -15.6°
Maximum altitude 23:56:20 25° 265° (W) 1,273 4.1 -16.2°
Drops below altitude 10° 23:59:56 10° 320° (NW) 2,005 4.7 -16.9°
Sets 00:02:28 0° 334° (NNW) 2,915 5.3 -17.4°
